User: anonymous   Login
Location: Altoona
(40.5167°N, 78.4000°W)
Time: 02:28:49
(UTC-05:00)
Language:

SL-16 R/B - Orbit

View from above orbital plane
View from above orbital plane
View from above satellite
View from above satellite

Ground track
Ground track

The orbit data is extracted from the following two-line orbital elements,

1 31793U 07029B   18324.60214432 -.00000187 +00000-0 -72836-4 0  9999
2 31793 070.9775 013.9020 0002339 278.2865 190.8165 14.14410449588407
Epoch (UTC): 20 November 2018 14:27:05
Eccentricity: 0.0002339
inclination: 70.9775°
perigee height: 842 km
apogee height: 846 km
right ascension of ascending node: 13.9020°
argument of perigee: 278.2865°
revolutions per day: 14.14410449
mean anomaly at epoch: 190.8165°
orbit number at epoch: 58840

The dashed part of the orbit path shows where the satellite is in the earth's shadow,  

DLR